Weather History for Langley AFB, VA

Change the Weather History Date:

Saturday, September 28, 2013

  Actual Average Record
Temperature  
Mean Temperature 66 °F -  
Max Temperature 71 °F 74 °F 91 °F (1936)
Min Temperature 61 °F 60 °F 46 °F (1991)
Cooling Degree Days 1    
Growing Degree Days 16 (Base 50)    
Moisture  
Dew Point 58 °F    
Average Humidity 74    
Maximum Humidity 88    
Minimum Humidity 64    
Precipitation  
Precipitation 0.00 in - - ()
Sea Level Pressure  
Sea Level Pressure 30.22 in    
Wind  
Wind Speed 12 mph (NE)    
Max Wind Speed 18 mph    
Max Gust Speed 23 mph    
Visibility 10 miles    
Events Rain    
Averages and records for this station are not official NWS values.
T = Trace of Precipitation, MM = Missing Value Source: NWS Daily Summary

Daily Weather History Graph

Daily Weather History Graph

Search for Another Location

Airport:

Trip Planner

Search our weather history database for the weather conditions in past years. The results will help you decide how hot, cold, wet, or windy it might be!

Date:

Astronomy

Sep. 28, 2013 Rise Set
Actual Time 6:58 AM EDT 6:52 PM EDT
Civil Twilight 6:32 AM EDT 7:18 PM EDT
Nautical Twilight 6:02 AM EDT 7:48 PM EDT
Astronomical Twilight 5:31 AM EDT 8:19 PM EDT
Moon 12:51 AM EDT (9/28) 3:03 PM EDT (9/28)
Length of Visible Light 12h 46m
Length of Day
11h 54m
Last Quarter, 36% of the Moon is Illuminated
Sep 28
Last Quarter
Oct 4
New
Oct 11
First Quarter
Oct 18
Full
Oct 26
Last Quarter

Hourly Weather History & Observations

Time (EDT) Temp. Dew Point Humidity Pressure Visibility Wind Dir Wind Speed Gust Speed Precip Events Conditions
12:58 AM 63.7 °F 57.4 °F 80% 30.21 in 10.0 mi ENE 12.7 mph - N/A   Clear
1:58 AM 62.6 °F 54.0 °F 73% 30.21 in 10.0 mi NE 10.4 mph - N/A   Clear
2:58 AM 62.4 °F 54.5 °F 75% 30.20 in 10.0 mi NE 12.7 mph - N/A   Scattered Clouds
3:58 AM 62.2 °F 55.0 °F 77% 30.20 in 10.0 mi NE 11.5 mph - N/A   Clear
4:58 AM 62.6 °F 55.8 °F 78% 30.20 in 10.0 mi NE 9.2 mph - N/A   Clear
5:58 AM 62.8 °F 56.3 °F 79% 30.20 in 10.0 mi NE 11.5 mph - N/A   Clear
6:53 AM 64.4 °F 57.2 °F 77% 30.20 in 10.0 mi NE 10.4 mph - N/A   Overcast
6:58 AM 64.9 °F 57.4 °F 76% 30.22 in 10.0 mi NE 8.1 mph - N/A   Overcast
7:18 AM 64.4 °F 57.2 °F 77% 30.20 in 10.0 mi NE 13.8 mph 23.0 mph N/A   Overcast
7:58 AM 65.7 °F 58.6 °F 78% 30.23 in 10.0 mi NE 17.3 mph - N/A   Overcast
8:58 AM 66.6 °F 58.1 °F 74% 30.24 in 10.0 mi NE 18.4 mph 23.0 mph N/A   Overcast
9:58 AM 68.4 °F 58.8 °F 71% 30.26 in 10.0 mi NE 16.1 mph 21.9 mph N/A   Overcast
10:58 AM 69.4 °F 57.9 °F 67% 30.26 in 10.0 mi NE 18.4 mph - N/A   Overcast
11:58 AM 69.3 °F 58.5 °F 68% 30.27 in 10.0 mi NE 16.1 mph - N/A   Overcast
12:58 PM 70.7 °F 58.5 °F 65% 30.26 in 10.0 mi NE 15.0 mph 23.0 mph N/A   Overcast
1:08 PM 69.8 °F 59.0 °F 68% 30.24 in 10.0 mi NE 16.1 mph - N/A   Overcast
1:48 PM 69.8 °F 59.0 °F 68% 30.23 in 10.0 mi NNE 12.7 mph - N/A   Overcast
1:58 PM 70.7 °F 59.2 °F 67% 30.24 in 10.0 mi NNE 12.7 mph - N/A   Overcast
2:58 PM 69.8 °F 57.6 °F 65% 30.23 in 10.0 mi NNE 12.7 mph - N/A   Overcast
3:19 PM 68.0 °F 57.2 °F 68% 30.21 in 10.0 mi NE 12.7 mph - N/A Rain Light Rain
3:29 PM 66.2 °F 59.0 °F 78% 30.21 in 10.0 mi NNE 8.1 mph - N/A Rain Light Rain
3:39 PM 66.2 °F 59.0 °F 78% 30.21 in 10.0 mi NNE 10.4 mph - N/A   Overcast
3:44 PM 66.2 °F 59.0 °F 78% 30.20 in 10.0 mi NNE 12.7 mph - N/A   Overcast
3:49 PM 66.2 °F 59.0 °F 78% 30.20 in 10.0 mi NE 8.1 mph - N/A   Overcast
3:54 PM 68.0 °F 57.2 °F 68% 30.20 in 10.0 mi NNE 10.4 mph - N/A   Overcast
3:58 PM 67.3 °F 57.9 °F 72% 30.22 in 10.0 mi NE 11.5 mph - 0.00 in   Overcast
4:08 PM 68.0 °F 57.2 °F 68% 30.20 in 10.0 mi NE 12.7 mph - N/A   Overcast
4:38 PM 68.0 °F 57.2 °F 68% 30.20 in 10.0 mi ENE 13.8 mph - N/A   Overcast
4:48 PM 68.0 °F 57.2 °F 68% 30.20 in 10.0 mi ENE 13.8 mph - N/A   Overcast
4:58 PM 68.7 °F 56.3 °F 64% 30.22 in 10.0 mi ENE 13.8 mph - N/A   Overcast
5:33 PM 68.0 °F 57.2 °F 68% 30.21 in 10.0 mi ENE 10.4 mph - N/A   Overcast
5:43 PM 68.0 °F 57.2 °F 68% 30.21 in 10.0 mi ENE 12.7 mph - N/A   Overcast
5:53 PM 66.2 °F 57.2 °F 73% 30.20 in 10.0 mi ENE 10.4 mph - N/A   Mostly Cloudy
5:58 PM 66.2 °F 57.2 °F 73% 30.22 in 10.0 mi ENE 9.2 mph - N/A   Mostly Cloudy
6:03 PM 66.2 °F 57.2 °F 73% 30.20 in 10.0 mi ENE 10.4 mph - N/A   Mostly Cloudy
6:58 PM 65.1 °F 58.3 °F 78% 30.22 in 10.0 mi ENE 11.5 mph - N/A   Partly Cloudy
7:58 PM 64.0 °F 57.6 °F 79% 30.22 in 10.0 mi ENE 11.5 mph - N/A   Clear
8:58 PM 63.3 °F 57.9 °F 83% 30.23 in 10.0 mi NE 11.5 mph - N/A   Clear
9:58 PM 62.4 °F 57.9 °F 85% 30.23 in 10.0 mi NE 9.2 mph - N/A   Clear
10:58 PM 62.1 °F 58.1 °F 87% 30.21 in 10.0 mi NE 8.1 mph - N/A   Clear
11:58 PM 61.9 °F 58.3 °F 88% 30.20 in 10.0 mi NE 6.9 mph - N/A   Clear